When you browse on this site, cookies collect data to enhance your experience and personalize the content and advertising you see.
Visit our Privacy Policy to learn more. By continuing to use the site, you agree to this use of cookies and data.
  • In United Kingdom
  • List of Countries
  • For 7 days
  • Water Temperature
  • Weather Map
  • Weather Widgets
  • user-avatar
    Login

    Hourly Weather Petrushky

    Today, 11 November, Monday

    Time Temperature Precipitation Wind Pressure Humidity
    00:00 +10°C° 0 mm 4 mps 748 mmHg 73%
    01:00 +10°C° 0 mm 4 mps 748 mmHg 74%
    02:00 +9°C° 0 mm 3 mps 748 mmHg 81%
    03:00 +8°C° 0 mm 4 mps 747 mmHg 84%
    04:00 +8°C° 0 mm 4 mps 747 mmHg 88%
    05:00 +7°C° 0 mm 4 mps 746 mmHg 92%
    06:00 +8°C° 1.6 mm 4 mps 746 mmHg 92%
    07:00 +10°C° 1.6 mm 4 mps 746 mmHg 93%
    08:00 +10°C° 0 mm 4 mps 747 mmHg 93%
    09:00 +11°C° 0.6 mm 4 mps 747 mmHg 92%
    10:00 +12°C° 0.6 mm 4 mps 746 mmHg 91%
    11:00 +12°C° 0.6 mm 4 mps 746 mmHg 90%
    12:00 +13°C° 0 mm 4 mps 747 mmHg 84%
    13:00 +14°C° 0 mm 4 mps 747 mmHg 77%
    14:00 +15°C° 0 mm 5 mps 748 mmHg 73%
    15:00 +14°C° 0 mm 4 mps 748 mmHg 75%
    16:00 +13°C° 0 mm 3 mps 748 mmHg 77%
    17:00 +12°C° 0 mm 3 mps 748 mmHg 78%
    18:00 +11°C° 0 mm 3 mps 749 mmHg 79%
    19:00 +10°C° 0 mm 3 mps 750 mmHg 79%
    20:00 +10°C° 0 mm 3 mps 750 mmHg 79%
    21:00 +9°C° 0 mm 2 mps 750 mmHg 82%
    22:00 +8°C° 0 mm 2 mps 751 mmHg 86%
    23:00 +8°C° 0 mm 2 mps 751 mmHg 89%

    Tomorrow, 12 November, Tuesday

    Time Temperature Precipitation Wind Pressure Humidity
    00:00 +8°C° 0 mm 1 mps 752 mmHg 89%
    01:00 +8°C° 0 mm 1 mps 752 mmHg 89%
    02:00 +7°C° 0 mm 1 mps 752 mmHg 88%
    03:00 +7°C° 0 mm 1 mps 752 mmHg 88%
    04:00 +6°C° 0 mm 0 mps 753 mmHg 87%
    05:00 +6°C° 0 mm 0 mps 753 mmHg 86%
    06:00 +7°C° 0 mm 1 mps 753 mmHg 85%
    07:00 +7°C° 0 mm 1 mps 753 mmHg 84%
    08:00 +7°C° 0 mm 1 mps 754 mmHg 84%
    09:00 +8°C° 0 mm 2 mps 754 mmHg 76%
    10:00 +9°C° 0 mm 2 mps 754 mmHg 68%
    11:00 +12°C° 0 mm 2 mps 754 mmHg 60%
    12:00 +12°C° 0 mm 3 mps 754 mmHg 58%
    13:00 +12°C° 0 mm 3 mps 754 mmHg 56%
    14:00 +13°C° 0 mm 4 mps 754 mmHg 54%
    15:00 +12°C° 0 mm 4 mps 754 mmHg 60%
    16:00 +11°C° 0 mm 4 mps 753 mmHg 66%
    17:00 +10°C° 0 mm 4 mps 753 mmHg 72%
    18:00 +8°C° 0 mm 4 mps 753 mmHg 74%
    19:00 +8°C° 0 mm 4 mps 754 mmHg 76%
    20:00 +8°C° 0 mm 4 mps 754 mmHg 79%
    21:00 +8°C° 0 mm 4 mps 754 mmHg 81%
    22:00 +8°C° 0 mm 4 mps 754 mmHg 83%
    23:00 +8°C° 0 mm 4 mps 754 mmHg 86%

    Day after tomorrow, 13 November, Wednesday

    Time Temperature Precipitation Wind Pressure Humidity
    00:00 +8°C° 0 mm 4 mps 754 mmHg 87%
    01:00 +8°C° 0 mm 4 mps 754 mmHg 88%
    02:00 +7°C° 0 mm 4 mps 754 mmHg 89%
    03:00 +7°C° 0 mm 4 mps 753 mmHg 89%
    04:00 +7°C° 0 mm 4 mps 753 mmHg 90%
    05:00 +7°C° 0 mm 4 mps 753 mmHg 90%
    06:00 +7°C° 0 mm 4 mps 753 mmHg 90%
    07:00 +7°C° 0 mm 5 mps 753 mmHg 89%
    08:00 +8°C° 0 mm 5 mps 753 mmHg 89%
    09:00 +9°C° 0 mm 5 mps 753 mmHg 79%
    10:00 +11°C° 0 mm 6 mps 753 mmHg 69%
    11:00 +14°C° 0 mm 6 mps 753 mmHg 60%
    12:00 +15°C° 0 mm 6 mps 752 mmHg 57%
    13:00 +15°C° 0 mm 6 mps 752 mmHg 55%
    14:00 +16°C° 0 mm 6 mps 752 mmHg 52%
    15:00 +15°C° 0 mm 6 mps 751 mmHg 57%
    16:00 +14°C° 0 mm 5 mps 751 mmHg 62%
    17:00 +13°C° 0 mm 5 mps 751 mmHg 67%
    18:00 +12°C° 0 mm 5 mps 751 mmHg 70%
    19:00 +12°C° 0 mm 5 mps 751 mmHg 72%
    20:00 +10°C° 0 mm 5 mps 751 mmHg 75%
    21:00 +10°C° 0 mm 5 mps 751 mmHg 75%
    22:00 +10°C° 0 mm 6 mps 751 mmHg 75%
    23:00 +9°C° 0 mm 6 mps 751 mmHg 75%

    14 November, Thursday

    Time Temperature Precipitation Wind Pressure Humidity
    00:00 +9°C° 0 mm 5 mps 751 mmHg 77%
    01:00 +8°C° 0 mm 4 mps 751 mmHg 79%
    02:00 +8°C° 0 mm 4 mps 751 mmHg 81%
    03:00 +7°C° 0 mm 4 mps 751 mmHg 83%
    04:00 +7°C° 0 mm 4 mps 751 mmHg 85%
    05:00 +6°C° 0 mm 4 mps 751 mmHg 87%
    06:00 +6°C° 0 mm 4 mps 751 mmHg 87%
    07:00 +6°C° 0 mm 4 mps 751 mmHg 87%
    08:00 +6°C° 0 mm 4 mps 751 mmHg 88%
    09:00 +8°C° 0 mm 5 mps 751 mmHg 79%
    10:00 +9°C° 0 mm 5 mps 751 mmHg 71%
    11:00 +10°C° 0 mm 6 mps 751 mmHg 62%
    12:00 +11°C° 0 mm 6 mps 751 mmHg 58%
    13:00 +13°C° 0 mm 6 mps 751 mmHg 54%
    14:00 +13°C° 0 mm 6 mps 751 mmHg 50%
    15:00 +11°C° 0 mm 6 mps 750 mmHg 53%
    16:00 +10°C° 0 mm 5 mps 750 mmHg 56%
    17:00 +10°C° 0 mm 4 mps 750 mmHg 59%
    18:00 +8°C° 0 mm 4 mps 751 mmHg 56%
    19:00 +8°C° 0 mm 5 mps 751 mmHg 53%
    20:00 +7°C° 0 mm 5 mps 751 mmHg 51%
    21:00 +7°C° 0 mm 5 mps 751 mmHg 52%
    22:00 +6°C° 0 mm 4 mps 751 mmHg 53%
    23:00 +6°C° 0 mm 4 mps 751 mmHg 54%

    15 November, Friday

    Time Temperature Precipitation Wind Pressure Humidity
    00:00 +5°C° 0 mm 4 mps 751 mmHg 57%
    01:00 +5°C° 0 mm 4 mps 751 mmHg 59%
    02:00 +5°C° 0 mm 4 mps 751 mmHg 61%
    03:00 +4°C° 0 mm 4 mps 751 mmHg 64%
    04:00 +4°C° 0 mm 4 mps 751 mmHg 66%
    05:00 +4°C° 0 mm 4 mps 751 mmHg 69%
    06:00 +4°C° 0 mm 4 mps 751 mmHg 70%
    07:00 +3°C° 0 mm 4 mps 752 mmHg 71%
    08:00 +3°C° 0 mm 4 mps 752 mmHg 72%
    09:00 +5°C° 0 mm 4 mps 752 mmHg 68%
    10:00 +6°C° 0 mm 5 mps 752 mmHg 65%
    11:00 +7°C° 0 mm 5 mps 752 mmHg 62%
    12:00 +7°C° 0 mm 5 mps 752 mmHg 60%
    13:00 +8°C° 0 mm 4 mps 752 mmHg 59%
    14:00 +10°C° 0 mm 4 mps 752 mmHg 58%
    15:00 +8°C° 0 mm 4 mps 752 mmHg 63%
    16:00 +8°C° 0 mm 3 mps 752 mmHg 67%
    17:00 +7°C° 0 mm 3 mps 752 mmHg 72%
    18:00 +7°C° 0 mm 3 mps 753 mmHg 74%
    19:00 +5°C° 0 mm 3 mps 753 mmHg 76%
    20:00 +5°C° 0 mm 3 mps 753 mmHg 78%
    21:00 +5°C° 0 mm 3 mps 753 mmHg 79%
    22:00 +4°C° 0 mm 3 mps 754 mmHg 81%
    23:00 +5°C° 0 mm 2 mps 754 mmHg 82%

    16 November, Saturday

    Time Temperature Precipitation Wind Pressure Humidity
    00:00 +5°C° 0 mm 2 mps 754 mmHg 82%
    01:00 +5°C° 0 mm 2 mps 754 mmHg 83%
    02:00 +4°C° 0 mm 2 mps 754 mmHg 83%
    03:00 +4°C° 0 mm 2 mps 754 mmHg 84%
    04:00 +3°C° 0 mm 3 mps 755 mmHg 85%
    05:00 +2°C° 0 mm 3 mps 755 mmHg 86%
    06:00 +3°C° 0 mm 2 mps 755 mmHg 86%
    07:00 +3°C° 0 mm 2 mps 755 mmHg 87%
    08:00 +3°C° 0 mm 2 mps 755 mmHg 87%
    09:00 +5°C° 0 mm 2 mps 755 mmHg 81%
    10:00 +5°C° 0 mm 3 mps 755 mmHg 75%
    11:00 +8°C° 0 mm 3 mps 756 mmHg 68%
    12:00 +8°C° 0 mm 3 mps 755 mmHg 67%
    13:00 +9°C° 0 mm 3 mps 755 mmHg 65%
    14:00 +9°C° 0 mm 3 mps 755 mmHg 64%
    15:00 +8°C° 0 mm 3 mps 755 mmHg 70%
    16:00 +7°C° 0 mm 3 mps 755 mmHg 76%
    17:00 +5°C° 0 mm 3 mps 755 mmHg 81%
    18:00 +5°C° 0 mm 3 mps 755 mmHg 84%
    19:00 +4°C° 0 mm 3 mps 756 mmHg 86%
    20:00 +5°C° 0 mm 2 mps 756 mmHg 88%
    21:00 +4°C° 0 mm 2 mps 756 mmHg 89%
    22:00 +4°C° 0 mm 2 mps 756 mmHg 89%
    23:00 +4°C° 0 mm 2 mps 756 mmHg 90%
    Show more